FARRENBERG (FAR1) Information & Weather

WARNING: the data listed below is for informational purposes only and should be confirmed from official sources. Data presented here on this page may be out of date, incomplete or wrong.

Name: FARRENBERG
Identifier: FAR1

Coord: 48.3855N 9.0767E
Var: 1°E

Country: Germany
Municipality: UNKNOWN,
Time Zone: (GMT+01:00) Europe/Berlin

Station Elevation: 2605 ft
Pressure Altitude: 2312 ft
Density Altitude: 4590 ft
Freezing Level: 16746 ft

Civil Twilight
Morning: 03:57 UTC  (04:57 local)
Evening: 18:53 UTC  (19:53 local)

METAR EDDS 241120Z 08009KT 020V140 CAVOK 28/14 Q1023 NOSIG= [toggle past 4 hours]
(Station: EDDS; distance: 19.2 nm)

TAF EDDS 241100Z 2412/2512 08008KT CAVOK BECMG 2418/2420 VRB03KT=
(Station: EDDS; distance: 19.2 nm)

UAV Operators

Looking to operate a drone in the area around FARRENBERG (FAR1)? Try out Skyward's Airspace Map and easy flight planning and logging tools designed specifically for drone pilots. See Skyward's website (www.skyward.io) for more information.

Upper Winds

Source   Valid 375 1000 2000 2500 3000 5000 6000 8000 10000 12000 14000 16000 18000 21000 24000 26000 30000 34000 39000 44000 52000 60000
GFS Not currently available

SIGMET/AIRMET

None within 25nm.

PIREP

None within 25nm.

NOTAM

Not tracked at this time. Please check with the local aviation authority for current list of NOTAM for FAR1.

Runway Data

Frequencies

Nearby Airports

Nearby Navaids